Location: Fours
(44.3167°N, 6.7000°E)
Time: 09:51:52
(UTC+00:00)

Cosmos 1151 Rocket - Pass Details

Date: 30 November 2020
Orbit: 593 x 615 km, 82.5° (Epoch: 25 January)

Event Time Altitude Azimuth Distance (km) Brightness Sun altitude
Rises 16:52:40 0° 179° (S) 2,832 6.7 -10.0°
Reaches altitude 10° 16:54:53 10° 176° (S) 1,931 5.8 -10.4°
Maximum altitude 16:59:06 64° 95° (E) 665 3.0 -11.1°
Drops below altitude 10° 17:03:20 10° 15° (NNE) 1,939 5.3 -11.8°
Sets 17:05:33 0° 12° (NNE) 2,844 6.2 -12.2°
